Location: Barrio Las Umbrías
(40.4173°N, 4.8685°W)
Time: 14:08:41
(UTC+00:00)

H-2A R/B - Pass Details

Date: 17 August 2022
Orbit: 525 x 647 km, 98.3° (Epoch: 27 September)

Event Time Altitude Azimuth Distance (km) Brightness Sun altitude
Exits shadow 19:53:17 - 144° (SE) 2,322 5.0 -7.7°
Reaches altitude 10° 19:54:06 10° 141° (SE) 2,007 4.6 -7.9°
Maximum altitude 19:58:12 41° 71° (ENE) 933 3.2 -8.6°
Drops below altitude 10° 20:02:25 10° 2° (N) 2,055 5.6 -9.3°
Sets 20:04:44 0° 355° (N) 2,973 6.5 -9.7°
